Weather Roundup
Issued by NWS Springfield, MO

Home | Current Version | Previous Version | Text Only | Print | Product List | Glossary On
Versions: 1 2 3 4 5 6 7 8 9 10 11 12 13 14 15 16 17 18 19 20 21 22 23 24 25 26 27 28 29 30 31 32 33 34 35 36 37 38 39 40 41 42 43 44 45 46 47 48 49 50
000
NZUS99 KSGF 231857
HRRSGF

HOURLY WEATHER
NATIONAL WEATHER SERVICE SPRINGFIELD MO
200 PM CDT THU MAR 23 2017

......SGF CWA......

CITY           SKY/WX    TMP DP  RH WIND       PRES   REMARKS
SPRINGFIELD    SUNNY     72  50  45 S18       30.05F
JOPLIN         SUNNY     77  49  37 S18G30    30.00F
WEST PLAINS    SUNNY     68  44  42 S14G20    30.15F
ROLLA          SUNNY     70  45  40 S17G25    30.07F
BRANSON        MOSUNNY   70  50  49 S13G18    30.11F

......SURROUNDING SGF CWA......

CITY           SKY/WX    TMP DP  RH WIND       PRES   REMARKS
CHANUTE        SUNNY     75  52  44 S26G33    29.93F
PARSONS        SUNNY     75  52  44 S21G31    29.95F
COFFEYVILLE    SUNNY     75  53  46 S18       29.95F
EMPORIA        SUNNY     72  53  51 S24G35    29.85F
HARRISON AR    SUNNY     72  54  53 S20       30.10F

......KANSAS AND MISSOURI......

CITY           SKY/WX    TMP DP  RH WIND       PRES   REMARKS
KANSAS CTY INT MOSUNNY   74  51  44 S23G31    29.89F
SEDALIA        SUNNY     77  52  41 S18G32    30.00F
ST JOSEPH      SUNNY     74  51  44 S24G31    29.84F
ST LOUIS       PTSUNNY   48  37  65 SE18      30.17F
WICHITA        PTSUNNY   68  57  68 S24G35    29.83F
TOPEKA         SUNNY     76  54  46 S20G32    29.83F

......TENNESSEE......

CITY           SKY/WX    TMP DP  RH WIND       PRES   REMARKS
MEMPHIS        NOT AVBL
NASHVILLE      CLOUDY    60  35  39 NE5       30.31F

......ARKANSAS.......

CITY           SKY/WX    TMP DP  RH WIND       PRES   REMARKS
FAYETTEVILLE   SUNNY     73  51  46 S17G24    30.05F
FT SMITH       SUNNY     73  48  41 SE9G18    30.06F
LITTLE ROCK    MOSUNNY   75  53  46 VRB6      30.13F

......OKLAHOMA.......

CITY           SKY/WX    TMP DP  RH WIND       PRES   REMARKS
TULSA          SUNNY     75  53  46 S22G28    29.95F
MCALESTER      MOSUNNY   77  56  48 S16G24    30.00F
OKLAHOMA CITY  SUNNY     80  53  39 S30G36    29.88F

......IOWA............

CITY           SKY/WX    TMP DP  RH WIND       PRES   REMARKS
DES MOINES     NOT AVBL
QUAD CITIES    CLOUDY    43  29  57 SE16G22   30.16F

......ILLINOIS........

CITY           SKY/WX    TMP DP  RH WIND       PRES   REMARKS
QUINCY         NOT AVBL
CHICAGO        CLOUDY    48  21  34 S18G25    30.23F



USA.gov is the U.S. government's official web portal to all federal, state and local government web resources and services.